www.pogodaiklimat.ru

Погода и климат >> Архив погоды >> Китай >> Гуандун >> Янцзян


ПОГОДА в Янцзяне

  • Прогноз погоды в Янцзяне
  • Монитор погоды в Янцзяне

АРХИВ ПОГОДЫ в Янцзяне

Время (UTC), дата Ветер
(напр.,м/с)
 
Видим.   Явления Облачность Т
(С)
Тd
(С)
f
(%)
Тe
(С)
Тes
(С)
Комфортность P
(гПа)
Po
(гПа)
Тmin
(С)
Tmax
(С)
R
(мм)
R24
(мм)
S
(см)
00 13.09 С 3 16 км 5/5 300 м
[]
+28.0 +25.6 87 +41 +43 опасность
перегрева
1009.7 999.3 4
03 13.09 штиль 0 28 км 9/9 300 м
[]
+31.6 +25.2 69 +46 +48 опасность
перегрева
1009.8 1007.3
06 13.09 Ю 4 30 км 5/5 300 м
[]
+32.1 +24.6 65 +45 +51 опасность
перегрева
1008.0 997.7 +27.0
09 13.09 Ю 5 30 км 1/1 300 м
[]
+30.6 +24.9 72 +44 +45 опасность
перегрева
1006.9 1004.4
12 13.09 Ю 1 30 км ясно +29.3 +25.0 78 +42 +42 опасность
перегрева
1008.3 998.0
15 13.09 Ю 3 30 км н/о +28.7 +25.5 83 +42 +42 опасность
перегрева
1009.0 1006.5
18 13.09 З 2 26 км н/о +28.0 +26.0 89 +42 +42 опасность
перегрева
1008.5 998.2 +32.4
21 13.09 З 2 20 км н/о +27.7 +26.0 90 +41 +41 опасность
перегрева
1008.1 1005.6
00 14.09 СЗ 2 24 км ясно +28.3 +26.1 88 +43 +46 опасность
перегрева
1009.7 999.3
03 14.09 В 1 21 км 9/9 300 м
[]
+30.9 +24.5 69 +44 +45 опасность
перегрева
1009.8 1007.3
06 14.09 З 3 27 км 8/8 300 м
[]
+32.2 +26.9 74 +50 +53 опасность
перегрева
1007.5 997.2 +27.4
09 14.09 ЮЗ 5 20 км в посл. час дождь 9/9 300 м
[]
+27.3 +24.3 84 +38 +39 очень
душно
1007.2 1004.7
12 14.09 В 3 1300 м сильн. дождь 10/10 300 м
[]
+26.3 +25.7 97 +39 +39 очень
душно
1008.7 998.3 14
15 14.09 В 2 23 км н/о +26.1 +25.0 94 +37 +37 очень
душно
1009.7 1007.2
18 14.09 С 1 22 км ?/? +25.8 +24.7 94 +37 +37 очень
душно
1008.5 998.2 +32.9 0.1
21 14.09 С 2 18 км н/о +25.7 +24.6 94 +36 +36 очень
душно
1008.1 1005.6
00 15.09 С 1 26 км 8/8 1000 м
[]
+27.0 +24.8 88 +39 +39 очень
душно
1009.8 999.4 0.1
03 15.09 В 2 23 км 8/8 1000 м
[]
+29.3 +25.6 81 +43 +47 опасность
перегрева
1010.2 1007.7
06 15.09 ЮВ 4 30 км 9/9 300 м
[]
+30.8 +25.6 74 +45 +46 опасность
перегрева
1007.2 996.9 +25.4
09 15.09 Ю 3 30 км 9/9 300 м
[]
+29.3 +25.2 79 +43 +43 опасность
перегрева
1006.7 1004.2
12 15.09 ЮЗ 2 21 км 3/3 300 м
[]
+28.0 +24.8 83 +40 +40 очень
душно
1008.1 997.7
15 15.09 С 3 12 км н/о +27.3 +25.6 90 +40 +40 очень
душно
1009.0 1006.5
18 15.09 С 2 14 км н/о +26.7 +25.1 91 +38 +38 очень
душно
1008.1 997.8 +31.9
21 15.09 СЗ 2 11 км н/о +26.7 +25.2 91 +38 +38 очень
душно
1007.6 1005.1
00 16.09 С 2 7000 м 9/9 300 м
[]
+27.3 +25.8 92 +41 +41 опасность
перегрева
1009.5 999.1
03 16.09 В 1 13 км {дождь} 10/10 300 м
[]
+27.9 +25.7 88 +41 +41 опасность
перегрева
1009.6 1007.1
06 16.09 С 2 18 км {дождь} 9/9 300 м
[]
+30.6 +24.7 71 +43 +45 опасность
перегрева
1006.8 996.5 +26.3
09 16.09 Ю 4 23 км в посл. час дождь 3/3 300 м
[]
+29.6 +25.7 80 +44 +45 опасность
перегрева
1006.3 1003.8
12 16.09 Ю 3 30 км {дождь} ясно +28.8 +25.2 81 +42 +42 опасность
перегрева
1006.9 996.6 0.0
15 16.09 В 1 24 км н/о +28.5 +25.5 84 +42 +42 опасность
перегрева
1008.6 1006.1
18 16.09 С 3 10 км н/о +27.5 +25.5 89 +40 +40 очень
душно
1008.0 997.7 +31.8
21 16.09 С 2 24 км н/о +26.5 +24.5 89 +37 +37 очень
душно
1008.4 1005.9
00 17.09 СВ 3 16 км 9/9 1000 м
[]
+27.1 +24.7 87 +39 +39 очень
душно
1010.2 999.8
03 17.09 С 4 10 км {дождь} 9/9 1000 м
[]
+27.3 +25.5 90 +40 +41 очень
душно
1011.5 1009.0
06 17.09 СВ 2 28 км {дождь} 9/9 300 м
[]
+27.8 +23.8 79 +38 +40 очень
душно
1009.3 998.9 +23.9 4
09 17.09 В 3 27 км 5/5 300 м
[]
+29.9 +24.0 71 +41 +43 опасность
перегрева
1008.2 1005.7
12 17.09 В 2 23 км ясно +28.2 +23.5 76 +38 +38 очень
душно
1009.5 999.1
15 17.09 В 2 17 км н/о +27.6 +24.0 81 +38 +38 очень
душно
1010.7 1008.2
18 17.09 В 1 13 км слаб. дождь ?/? +26.6 +25.1 91 +38 +38 очень
душно
1010.2 999.8 +30.3
21 17.09 СВ 3 10 км н/о +25.9 +24.4 91 +36 +36 очень
душно
1010.2 1007.7
00 18.09 СВ 2 13 км 4/4 300 м
[]
+26.8 +24.4 87 +38 +39 очень
душно
1012.1 1001.7 0.0
03 18.09 В 5 18 км 4/4 300 м
[]
+30.3 +24.2 70 +42 +47 опасность
перегрева
1012.2 1009.7
06 18.09 В 4 15 км 5/5 300 м
[]
+31.8 +23.8 63 +43 +49 опасность
перегрева
1010.4 1000.1 +25.8
09 18.09 Ю 2 17 км 1/1 300 м
[]
+29.7 +25.4 78 +44 +46 опасность
перегрева
1009.8 1007.3
12 18.09 Ю 2 17 км 3/3 300 м
[]
+28.6 +25.6 84 +42 +42 опасность
перегрева
1011.6 1001.2
15 18.09 ЮЗ 1 20 км н/о +28.0 +24.8 83 +40 +40 очень
душно
1012.6 1010.1
18 18.09 Ю 2 15 км н/о +26.7 +24.9 90 +38 +38 очень
душно
1011.4 1001.0 +32.5
21 18.09 Ю 3 7000 м в посл. час дождь н/о +25.4 +24.7 96 +36 +36 очень
душно
1011.8 1009.3
00 19.09 С 3 9000 м в посл. час дождь 3/3 1000 м
[]
+26.5 +23.3 83 +36 +37 очень
душно
1013.6 1003.2 0.5
03 19.09 В 4 18 км 9/9 1000 м
[]
+28.0 +20.8 65 +35 +36 очень
душно
1013.8 1011.3
06 19.09 Ю 2 15 км 3/3 300 м
[]
+30.4 +23.0 65 +41 +52 опасность
перегрева
1011.0 1000.6 +25.3
09 19.09 ЮЗ 3 12 км 4/4 300 м
[]
+30.1 +23.7 69 +41 +43 опасность
перегрева
1010.3 1007.8
12 19.09 ЮЗ 2 11 км 9/9 300 м
[]
+27.8 +23.6 78 +38 +38 очень
душно
1011.3 1000.9
15 19.09 С 4 8000 м н/о +26.9 +23.9 84 +37 +37 очень
душно
1011.3 1008.8
18 19.09 З 3 6000 м дымка ?/? +25.9 +24.1 90 +36 +36 очень
душно
1010.6 1000.2 +31.1
21 19.09 С 3 9000 м н/о +25.0 +22.6 87 +33 +33 очень
душно
1009.8 1007.3

 

Местоположение метеостанции Янцзян (Гуандун, Китай): широта 21.87 долгота 111.96 высота над уровнем моря 22 м.

В архиве по умолчанию представлена погода в Янцзяне за последнюю неделю. Архивные данные за месяц целиком и за предыдущие месяцы, начиная с января 2011 года, Вы можете получить, выбрав интересующий диапазон дат из раскрывающегося списка и нажав кнопку "Ввод!".


*Определитесь, кто Вы:
робот инопланетянин человек

Внимание! Время в таблицах - всемирное. Для получения местного времени необходимо прибавить поправку, которая равна 8 ч.

Смотрите также архив погоды в соседних городах и на ближайших метеорологических станциях:

Погода на Шанчуан Дао (Гуандун, Китай) (84 км)
Погода в Синьи (Цзянсу, Китай) (119 км)
Погода в Гаояо (Гуандун, Китай) (141 км)
Погода Макао (Макао) (172 км)
Погода в Чжаньцзяне (Гуандун, Китай) (177 км)
Погода в Учжоу (Гуанси-Чжуанский автономный район, Китай) (191 км)
Погода в Гуанчжоу (Гуандун, Китай) (202 км)
Погода в Гонконге (Гонконг) (207 км)
Погода Cheung Chau (Гонконг) (215 км)
Погода Lau Fau Shan (Гонконг) (219 км)

Пояснения к столбцам:

Ветер - указаны скорость ветра в м/с - средняя за 10 мин, порывы в срок и между сроками (в фигурных скобках) и направление, откуда дует ветер: С - северный, СВ - северо-восточный, В - восточный, ЮВ - юго-восточный, Ю - южный, ЮЗ - юго-западный, З - западный, СЗ - северо-западный.
Видимость - горизонтальная дальность видимости в метрах или километрах. При видимости от 1 до 10 км при отсутствии осадков обычно наблюдается дымка, при ухудшении видимости до 1 км и менее - туман. В сухую погоду видимость может ухудшаться дымом, пылью или мглою.
Явления - указаны атмосферные явления, наблюдавшиеся в срок или в последний час перед сроком; фигурными скобками обозначены явления, наблюдавшиеся между сроками (за 1-3 часа до срока); квадратными скобками обозначены град или гололедные отложения с указанием их диаметра в мм.
Облачность - указаны через наклонную черту общая и нижняя облачность в баллах и высота нижней границы облаков в метрах; квадратными скобками обозначены формы облаков: Ci - перистые, Cs - перисто-слоистые, Cc - перисто-кучевые, Ac - высококучевые, As - высокослоистые, Sc - слоисто-кучевые, Ns - слоисто-дождевые, Cu - кучевые, Cb - кучево-дождевые. Подробнее классификацию облаков см. в Атласе облаков (PDF).
T - Температура воздуха - температура, измеренная на высоте 2 м над землей.
Td - Температура точки росы - температура, при понижении до которой содержащийся в воздухе водяной пар достигнет насыщения.
f - Относительная влажность воздуха - влажноcть воздуха, измеренная на высоте 2 м над землей.
Te - Эффективная температура - температура, которую ощущает одетый по сезону человек в тени. Характеристика душности погоды. При расчете учитывается влияние влажности воздуха и скорости ветра на теплоощущения человека.
Tes - Эффективная температура на солнце - температура, которую ощущает человек, с поправкой на солнечный нагрев. Характеристика знойности погоды. Зависит от высоты солнца над горизонтом, облачности и скорости ветра. Ночью, в пасмурную погоду, а также при ветре 12 м/с и более поправка равна нулю.
P - Атмосферное давление - приведенное к уровню моря атмосферное давление.
Po - Атмосферное давление - измеренное на уровне метеостанции атмосферное давление.
Tmin - Минимальная температура - минимум температуры воздуха на высоте 2 м над землей.
Tmax - Максимальная температура - максимум температуры воздуха на высоте 2 м над землей.
R - Количество осадков - Количество выпавших осадков за период времени, мм. При наведении курсора мыши на число - период времени, за который выпало указанное количество осадков.
R24 - Количество осадков - Количество выпавших осадков за 24 часа, мм.
S - Снежный покров - Высота снежного покрова, см. При наведении курсора мыши на число - состояние снежного покрова и степень покрытия местности в баллах.